TimeEST,TemperatureF,Dew PointF,Humidity,Sea Level PressureIn,VisibilityMPH,Wind Direction,Wind SpeedMPH,Gust SpeedMPH,PrecipitationIn,Events,Conditions,WindDirDegrees,DateUTC
12:15 AM,51.8,35.6,54,30.18,10.0,SSW,10.4,-,N/A,,Clear,200,2011-11-13 05:15:00
12:35 AM,51.8,35.6,54,30.18,10.0,SSW,11.5,17.3,N/A,,Clear,210,2011-11-13 05:35:00
12:55 AM,51.8,35.6,54,30.18,10.0,SSW,13.8,-,N/A,,Clear,210,2011-11-13 05:55:00
1:15 AM,51.8,35.6,54,30.18,10.0,SSW,11.5,-,N/A,,Clear,200,2011-11-13 06:15:00
1:35 AM,51.8,35.6,54,30.18,10.0,SSW,11.5,-,N/A,,Clear,200,2011-11-13 06:35:00
1:55 AM,51.8,35.6,54,30.18,10.0,SSW,10.4,-,N/A,,Clear,200,2011-11-13 06:55:00
2:15 AM,51.8,35.6,54,30.18,10.0,SSW,11.5,-,N/A,,Clear,200,2011-11-13 07:15:00
2:35 AM,51.8,35.6,54,30.18,10.0,SSW,10.4,-,N/A,,Clear,200,2011-11-13 07:35:00
3:15 AM,51.8,35.6,54,30.18,10.0,SSW,9.2,-,N/A,,Clear,210,2011-11-13 08:15:00
3:35 AM,51.8,35.6,54,30.18,10.0,SSW,12.7,-,N/A,,Clear,210,2011-11-13 08:35:00
3:55 AM,51.8,35.6,54,30.18,10.0,SSW,11.5,17.3,N/A,,Clear,210,2011-11-13 08:55:00
4:15 AM,51.8,35.6,54,30.18,10.0,SSW,12.7,-,N/A,,Clear,210,2011-11-13 09:15:00
4:35 AM,51.8,35.6,54,30.18,10.0,SSW,11.5,-,N/A,,Clear,210,2011-11-13 09:35:00
4:55 AM,51.8,35.6,54,30.18,10.0,SSW,11.5,-,N/A,,Clear,200,2011-11-13 09:55:00
5:15 AM,51.8,35.6,54,30.18,10.0,SSW,10.4,-,N/A,,Clear,200,2011-11-13 10:15:00
5:35 AM,51.8,35.6,54,30.18,10.0,SSW,10.4,-,N/A,,Clear,200,2011-11-13 10:35:00
5:55 AM,51.8,35.6,54,30.18,10.0,South,11.5,-,N/A,,Clear,190,2011-11-13 10:55:00
6:15 AM,51.8,35.6,54,30.18,10.0,SSW,11.5,17.3,N/A,,Clear,200,2011-11-13 11:15:00
6:35 AM,51.8,35.6,54,30.18,10.0,South,11.5,17.3,N/A,,Clear,190,2011-11-13 11:35:00
6:55 AM,51.8,35.6,54,30.18,10.0,South,11.5,-,N/A,,Clear,190,2011-11-13 11:55:00
7:15 AM,51.8,35.6,54,30.19,10.0,SSW,11.5,16.1,N/A,,Clear,200,2011-11-13 12:15:00
7:55 AM,53.6,35.6,51,30.20,10.0,SSW,13.8,21.9,N/A,,Clear,200,2011-11-13 12:55:00
8:15 AM,55.4,35.6,47,30.20,10.0,SSW,11.5,19.6,N/A,,Clear,200,2011-11-13 13:15:00
8:35 AM,55.4,37.4,51,30.21,10.0,SSW,16.1,19.6,N/A,,Clear,200,2011-11-13 13:35:00
8:55 AM,55.4,37.4,51,30.20,10.0,South,12.7,18.4,N/A,,Clear,190,2011-11-13 13:55:00
9:35 AM,57.2,37.4,48,30.20,10.0,South,16.1,20.7,N/A,,Clear,190,2011-11-13 14:35:00
9:55 AM,57.2,37.4,48,30.21,10.0,SSW,15.0,21.9,N/A,,Clear,200,2011-11-13 14:55:00
10:15 AM,57.2,37.4,48,30.19,10.0,South,16.1,23.0,N/A,,Clear,190,2011-11-13 15:15:00
10:35 AM,59.0,37.4,45,30.18,10.0,South,13.8,19.6,N/A,,Clear,190,2011-11-13 15:35:00
10:55 AM,60.8,37.4,42,30.17,10.0,South,15.0,21.9,N/A,,Clear,190,2011-11-13 15:55:00
11:15 AM,60.8,37.4,42,30.17,10.0,South,16.1,21.9,N/A,,Clear,190,2011-11-13 16:15:00
11:35 AM,60.8,37.4,42,30.15,10.0,South,16.1,25.3,N/A,,Clear,190,2011-11-13 16:35:00
11:55 AM,62.6,37.4,39,30.14,10.0,South,13.8,23.0,N/A,,Clear,180,2011-11-13 16:55:00
12:15 PM,60.8,39.2,45,30.13,10.0,South,15.0,21.9,N/A,,Clear,190,2011-11-13 17:15:00
12:35 PM,60.8,41.0,48,30.12,10.0,South,13.8,-,N/A,,Clear,170,2011-11-13 17:35:00
12:55 PM,59.0,42.8,55,30.11,10.0,South,16.1,-,N/A,,Clear,170,2011-11-13 17:55:00
1:15 PM,59.0,42.8,55,30.09,10.0,South,17.3,23.0,N/A,,Clear,180,2011-11-13 18:15:00
1:35 PM,59.0,42.8,55,30.08,10.0,South,15.0,24.2,N/A,,Clear,180,2011-11-13 18:35:00
1:55 PM,59.0,42.8,55,30.07,10.0,South,16.1,21.9,N/A,,Clear,180,2011-11-13 18:55:00
2:15 PM,57.2,42.8,59,30.07,10.0,South,17.3,20.7,N/A,,Clear,180,2011-11-13 19:15:00
2:35 PM,57.2,42.8,59,30.08,10.0,South,15.0,20.7,N/A,,Clear,180,2011-11-13 19:35:00
2:55 PM,57.2,42.8,59,30.07,10.0,South,15.0,-,N/A,,Clear,180,2011-11-13 19:55:00
3:15 PM,57.2,42.8,59,30.06,10.0,South,16.1,21.9,N/A,,Clear,180,2011-11-13 20:15:00
3:35 PM,57.2,42.8,59,30.07,10.0,South,13.8,19.6,N/A,,Clear,180,2011-11-13 20:35:00
3:55 PM,57.2,44.6,63,30.07,10.0,South,11.5,-,N/A,,Clear,180,2011-11-13 20:55:00
4:15 PM,57.2,44.6,63,30.07,10.0,South,13.8,19.6,N/A,,Clear,180,2011-11-13 21:15:00
4:35 PM,57.2,42.8,59,30.06,10.0,South,12.7,19.6,N/A,,Clear,180,2011-11-13 21:35:00
5:15 PM,57.2,42.8,59,30.06,10.0,South,13.8,19.6,N/A,,Clear,190,2011-11-13 22:15:00
5:35 PM,57.2,44.6,63,30.06,10.0,South,13.8,20.7,N/A,,Clear,180,2011-11-13 22:35:00
5:55 PM,57.2,44.6,63,30.07,10.0,South,11.5,-,N/A,,Clear,190,2011-11-13 22:55:00
6:15 PM,57.2,44.6,63,30.07,10.0,South,13.8,-,N/A,,Clear,190,2011-11-13 23:15:00
6:35 PM,57.2,44.6,63,30.06,10.0,South,15.0,23.0,N/A,,Clear,180,2011-11-13 23:35:00
6:55 PM,57.2,46.4,67,30.06,10.0,South,16.1,21.9,N/A,,Clear,190,2011-11-13 23:55:00
7:15 PM,57.2,46.4,67,30.06,10.0,South,15.0,-,N/A,,Clear,190,2011-11-14 00:15:00
7:35 PM,57.2,46.4,67,30.06,10.0,South,15.0,24.2,N/A,,Clear,190,2011-11-14 00:35:00
7:55 PM,57.2,46.4,67,30.06,10.0,South,13.8,-,N/A,,Clear,190,2011-11-14 00:55:00
8:15 PM,57.2,46.4,67,30.06,10.0,South,12.7,-,N/A,,Clear,190,2011-11-14 01:15:00
8:35 PM,59.0,44.6,59,30.07,10.0,SSW,12.7,-,N/A,,Clear,200,2011-11-14 01:35:00
8:55 PM,59.0,44.6,59,30.07,10.0,SSW,12.7,18.4,N/A,,Clear,200,2011-11-14 01:55:00
9:15 PM,59.0,44.6,59,30.07,10.0,South,11.5,16.1,N/A,,Clear,190,2011-11-14 02:15:00
9:35 PM,57.2,44.6,63,30.07,10.0,South,11.5,-,N/A,,Clear,190,2011-11-14 02:35:00
9:55 PM,57.2,44.6,63,30.06,10.0,South,10.4,16.1,N/A,,Clear,190,2011-11-14 02:55:00
10:15 PM,57.2,44.6,63,30.06,10.0,SSW,13.8,-,N/A,,Clear,200,2011-11-14 03:15:00
10:35 PM,59.0,42.8,55,30.05,10.0,SSW,15.0,19.6,N/A,,Clear,210,2011-11-14 03:35:00
10:55 PM,60.8,41.0,48,30.05,10.0,SSW,19.6,25.3,N/A,,Clear,210,2011-11-14 03:55:00
11:15 PM,60.8,39.2,45,30.05,10.0,SSW,18.4,24.2,N/A,,Clear,210,2011-11-14 04:15:00
11:35 PM,60.8,39.2,45,30.05,10.0,SSW,19.6,23.0,N/A,,Clear,210,2011-11-14 04:35:00
11:55 PM,60.8,41.0,48,30.05,10.0,SSW,17.3,23.0,N/A,,Clear,210,2011-11-14 04:55:00